RH
18 22 26 35 58 88 98 100 99 99 99 85 98 82 82 66 76 66 48 49 49 78 82 88 97 88 75 66 61 79 86 92 82 84 87 78 59 55 26 18 28 35 39
16 17 21 24 28 42 74 95 99 100 100 100 99 99 82 86 63 79 64 45 55 82 84 80 92 97 79 71 64 79 83 87 88 84 83 81 72 74 62 27 21 29 46
16 16 16 21 25 25 34 67 97 99 99 99 92 97 85 82 87 70 81 66 52 77 71 77 78 100 87 75 68 89 79 85 80 86 83 84 78 78 70 44 25 31 42
15 16 15 16 23 26 27 34 71 97 99 99 98 96 88 85 79 85 78 84 64 78 76 67 76 94 100 86 73 84 81 76 82 88 86 80 78 77 64 52 31 30 32
17 17 17 16 17 26 28 29 43 88 99 100 100 100 100 95 85 86 88 84 65 62 79 65 70 75 84 95 71 79 85 78 80 81 86 81 77 73 68 59 50 31 38
22 21 20 18 18 22 31 30 35 62 95 100 100 99 98 98 90 83 86 90 86 68 71 74 71 76 74 100 84 91 77 76 82 80 82 76 74 68 60 62 60 54 43
30 27 24 22 22 21 32 40 36 43 78 100 98 100 99 97 93 85 83 98 84 81 69 75 73 70 69 99 89 93 82 71 73 84 87 74 69 60 51 49 68 68 51
38 36 32 27 25 24 26 45 47 41 65 100 99 100 100 100 98 85 90 96 79 74 73 74 71 72 68 76 97 96 98 87 72 79 81 67 70 60 56 35 63 77 75
44 43 40 37 30 29 27 36 64 53 57 86 100 100 100 98 94 99 99 100 87 86 76 73 73 75 73 70 90 94 100 90 82 74 68 72 68 67 62 52 38 57 77
54 47 46 44 38 33 30 33 72 65 57 71 89 100 100 100 100 100 91 88 86 87 79 74 74 75 74 72 72 92 96 97 84 78 66 76 67 71 69 63 57 54 86
58 52 51 49 44 39 35 37 36 47 61 67 88 98 99 100 100 100 100 100 99 92 88 81 78 76 71 72 73 78 87 100 89 83 71 75 77 76 75 70 68 67 69
63 61 57 55 51 45 41 38 36 35 51 61 72 86 100 100 100 100 100 98 98 99 90 88 87 77 72 72 76 67 86 94 97 91 80 88 97 95 94 78 74 81 66
67 70 69 60 55 51 46 45 44 40 38 56 67 71 90 98 100 100 100 96 100 100 100 96 88 86 76 71 75 74 66 89 94 91 80 87 94 92 97 89 81 72 73
70 73 76 69 60 60 55 51 50 46 47 67 82 74 70 89 97 100 97 100 99 100 99 99 96 90 84 75 76 76 67 70 85 88 82 82 96 91 97 94 93 75 76
75 81 87 84 71 63 62 58 54 51 53 70 86 96 90 75 94 99 96 98 99 100 100 100 99 90 86 78 73 78 82 68 75 90 84 90 99 100 100 96 95 77 98
80 80 83 85 83 69 68 65 62 55 60 66 70 84 99 92 81 86 88 99 100 100 99 100 100 83 87 79 78 72 85 79 76 96 94 98 99 98 95 96 96 86 97
83 84 84 88 90 83 69 74 68 63 60 64 83 100 99 92 76 76 76 79 95 100 99 93 100 93 87 83 78 78 70 79 83 98 96 92 97 89 81 84 93 97 91
87 87 87 91 92 91 82 77 76 71 71 66 69 92 100 97 88 71 70 60 78 96 100 92 95 99 94 88 84 79 73 75 94 97 96 83 100 81 81 75 93 92 90
91 92 92 90 90 92 91 78 78 78 73 68 64 80 100 100 100 90 97 87 92 96 100 100 89 100 93 87 88 84 84 80 83 83 92 98 78 76 70 79 88 92 91
95 92 95 97 92 90 92 89 79 77 72 67 63 78 100 100 100 99 88 75 82 80 98 99 98 99 100 93 96 87 99 88 86 78 82 77 74 65 69 73 80 90 100
96 96 98 99 96 95 89 87 87 80 82 78 78 83 92 96 100 100 100 91 94 98 96 98 99 100 99 100 99 94 98 93 89 83 77 81 79 72 74 79 79 88 99
96 100 99 100 99 96 88 100 100 96 96 97 97 99 97 100 100 100 100 100 99 98 96 99 95 100 98 99 93 92 98 100 100 91 88 84 85 81 73 73 76 88 82
97 96 96 98 96 92 90 100 100 98 94 93 94 96 98 100 100 100 100 100 99 98 98 99 98 98 95 98 100 86 99 99 99 98 92 89 89 91 79 74 72 80 86
97 96 95 95 97 90 92 100 100 99 94 92 93 96 91 87 85 90 100 100 100 100 80 84 88 85 91 93 100 100 100 90 99 98 90 100 91 91 85 75 75 76 79
96 96 96 94 94 87 89 92 100 100 98 94 92 89 89 85 85 98 100 100 100 100 100 100 79 53 83 92 100 100 98 100 100 98 100 99 98 98 94 84 80 80 81
97 96 97 96 96 95 97 98 100 98 97 97 94 92 87 100 100 100 100 100 99 99 99 100 79 64 55 74 91 100 99 100 100 100 99 100 99 100 100 92 84 88 88
Wind_Speed
28 26 23 22 21 22 21 20 23 31 32 33 31 33 32 35 34 33 32 35 34 31 29 23 30 29 27 24 23 29 27 26 26 24 19 15 12 8 9 11 14 14 14
28 28 27 24 22 21 21 22 21 24 34 35 37 34 36 35 38 36 33 32 36 34 31 28 27 33 33 30 27 31 30 29 25 23 21 18 13 9 8 10 12 14 15
27 27 27 27 25 22 22 23 23 22 26 33 39 35 40 39 40 40 36 33 34 37 35 30 26 39 38 35 31 31 34 31 28 25 23 20 15 11 9 11 12 15 16
26 27 26 26 26 26 23 23 24 25 28 27 34 37 42 42 42 42 42 37 37 40 36 34 33 33 44 34 33 31 30 35 31 28 25 22 17 13 12 13 13 15 15
26 26 26 25 25 26 25 23 22 25 23 25 29 33 39 36 43 42 44 41 35 41 39 36 34 29 27 34 32 33 33 36 34 27 26 23 18 16 14 15 15 16 16
26 26 25 23 24 24 25 24 24 24 23 19 31 33 27 42 47 48 46 45 39 38 41 38 33 31 30 42 34 36 36 37 34 30 28 24 20 18 16 17 18 18 19
26 25 25 24 22 23 23 24 24 25 21 19 20 29 24 38 46 50 48 44 40 37 42 40 35 30 29 37 37 39 36 38 36 34 31 26 22 18 16 17 20 21 20
27 25 24 24 23 23 22 22 22 23 20 16 14 11 13 24 41 46 52 45 45 40 44 41 37 34 30 33 42 42 43 39 38 36 32 28 23 20 17 16 20 22 21
27 26 24 24 23 23 23 22 20 19 22 19 13 10 5 9 19 31 48 51 47 46 44 42 41 38 35 33 39 41 42 41 38 34 32 31 26 22 18 15 15 20 22
29 27 25 24 23 23 22 22 20 19 20 24 20 8 21 14 5 11 37 44 50 47 43 45 43 42 38 37 38 41 44 42 39 38 34 34 30 26 22 18 16 17 23
32 28 26 25 24 23 22 22 23 21 20 23 20 22 22 24 23 26 16 36 45 52 50 48 46 45 40 40 40 44 44 46 43 41 38 36 34 30 26 21 19 19 22
34 31 27 27 25 24 23 23 23 23 22 23 23 20 18 14 16 8 4 23 41 47 54 53 51 51 45 41 42 45 47 46 46 45 43 39 36 32 29 24 23 22 19
33 32 30 28 27 24 24 24 23 23 23 23 24 23 21 22 24 20 16 16 18 40 42 57 55 52 51 46 42 45 51 48 49 48 46 43 39 33 31 26 25 23 22
34 32 31 29 27 26 25 24 24 24 23 22 23 23 22 23 24 20 16 19 7 30 38 45 58 55 53 48 44 43 51 52 49 50 49 46 41 38 34 28 27 27 24
32 32 30 28 27 26 25 24 25 24 24 24 23 22 22 22 20 22 20 18 13 10 28 43 41 56 54 49 43 41 52 54 53 54 51 48 42 38 37 32 26 28 28
30 30 29 27 26 25 25 24 25 25 25 25 24 22 19 25 25 25 25 25 19 16 14 29 51 51 55 50 45 41 43 52 56 57 51 49 41 39 37 36 33 30 31
29 29 27 26 26 25 24 25 25 25 26 25 21 22 24 23 24 25 24 25 24 22 23 20 33 52 49 53 47 46 45 51 59 57 51 44 46 40 39 37 38 33 34
28 28 27 27 27 25 24 26 26 25 26 27 26 24 23 22 22 23 25 24 27 25 24 19 14 48 53 52 51 51 48 47 43 59 52 50 51 42 43 43 42 40 37
28 28 27 28 28 27 26 25 27 26 27 27 26 25 23 22 23 20 21 24 23 22 13 20 17 19 51 51 51 54 50 46 42 47 53 50 43 43 44 44 44 43 37
28 27 26 26 26 27 26 26 26 27 27 27 26 24 21 22 22 24 24 23 25 26 26 22 28 28 32 53 53 50 52 50 47 46 46 46 46 43 42 43 46 44 42
27 26 26 25 25 25 26 26 25 25 25 25 25 25 25 22 21 22 22 25 22 24 30 28 29 27 22 39 55 53 49 55 51 48 50 50 48 45 44 42 42 44 42
27 25 25 25 24 24 25 24 25 27 28 27 28 26 27 24 24 24 24 26 25 24 29 30 33 32 28 19 48 54 47 44 46 58 55 53 51 48 47 47 45 44 43
26 25 23 22 24 24 23 24 24 26 28 29 29 28 27 26 23 24 24 23 24 26 29 32 37 35 29 24 20 50 51 49 55 48 56 54 53 51 49 47 47 47 44
25 24 22 21 21 21 20 21 23 24 26 27 28 28 29 30 29 27 27 28 28 29 33 34 40 47 34 30 22 19 42 54 52 46 48 46 56 54 51 50 47 46 44
23 22 20 20 20 20 18 19 22 23 24 25 25 26 27 27 25 24 27 30 30 30 27 29 37 39 50 45 43 34 16 50 47 44 50 45 50 53 55 54 50 48 47
23 18 19 19 18 18 14 15 18 22 25 26 24 25 24 25 26 23 26 27 30 31 27 27 30 35 45 51 50 40 31 17 46 42 49 49 48 51 43 53 53 51 49
Wind_Direction
315 310 301 297 293 277 271 264 255 248 244 242 244 241 238 236 233 232 230 229 232 232 234 235 226 222 218 218 205 186 196 204 214 204 199 195 186 174 178 185 181 176 176
317 313 307 299 292 289 283 271 266 252 245 244 244 249 239 238 236 234 232 231 230 229 233 238 232 226 216 216 210 196 197 204 207 207 203 196 193 190 191 190 193 183 180
317 313 310 305 299 289 285 280 267 259 252 245 247 248 246 240 241 238 234 235 232 232 232 236 237 222 217 214 207 204 200 202 205 201 206 202 202 205 213 204 196 194 187
313 312 310 306 302 296 288 281 276 262 254 253 243 244 250 247 240 241 238 236 238 230 231 232 238 232 208 209 207 204 202 201 201 198 203 209 208 215 215 207 203 196 195
312 311 309 307 303 298 292 286 278 276 266 251 245 244 245 239 243 242 240 235 236 229 230 231 237 247 235 211 210 201 206 199 200 205 206 207 213 220 220 214 207 202 199
311 310 306 305 304 300 292 287 284 276 275 269 246 232 232 243 232 238 239 240 231 235 228 228 234 242 236 215 209 205 209 200 197 201 203 208 220 223 225 215 213 206 200
316 310 307 306 304 302 297 293 287 284 266 273 272 241 232 243 233 235 236 235 230 238 226 224 228 240 238 216 207 206 209 203 198 201 202 208 216 221 215 212 209 203 203
319 316 311 307 304 301 297 295 289 284 277 272 280 263 235 237 235 236 240 225 219 228 226 220 223 232 237 229 217 205 208 205 201 202 206 209 212 213 212 209 205 202 201
319 317 313 309 303 301 298 298 293 284 283 270 263 257 283 236 232 230 228 222 217 219 225 222 222 225 233 237 220 212 209 207 205 205 207 207 210 210 210 210 205 205 205
319 315 313 309 304 298 295 294 289 290 277 277 269 221 232 248 277 229 229 229 225 217 221 224 222 222 228 235 228 223 213 212 210 206 206 208 210 211 214 213 210 210 208
316 315 312 309 305 298 293 291 290 288 277 275 269 273 258 261 263 259 219 210 226 219 218 222 221 224 226 235 228 224 220 215 212 211 209 207 212 211 215 215 215 212 209
312 313 312 309 304 299 293 290 287 285 279 271 270 266 274 275 242 320 298 211 213 219 222 222 219 225 224 231 230 222 222 220 214 213 214 209 211 210 210 216 215 211 213
309 310 310 306 302 298 294 291 287 284 279 275 273 264 261 267 263 264 276 249 238 216 220 223 220 223 223 229 231 225 220 221 218 216 216 214 216 217 217 214 215 213 213
302 304 305 304 302 299 293 289 285 283 279 276 274 271 266 267 265 264 259 270 313 221 215 211 218 217 222 226 229 226 222 220 221 219 220 218 218 219 218 218 217 216 214
300 301 300 297 295 291 290 287 284 283 279 275 278 275 266 267 270 258 247 261 257 286 202 210 214 215 220 225 227 226 222 218 221 223 220 220 219 214 216 220 224 220 215
298 297 297 296 295 290 288 286 283 280 278 275 275 280 280 263 267 269 258 255 247 269 270 220 213 220 218 221 224 226 226 224 223 225 223 221 222 220 224 225 227 226 217
299 295 293 292 291 289 285 284 280 280 278 277 275 274 275 274 266 269 268 259 255 257 261 266 229 224 222 222 223 224 225 226 224 224 223 221 223 226 230 228 227 222 223
299 295 291 288 287 286 284 280 280 277 275 273 274 274 277 278 270 267 272 272 267 266 270 244 269 229 226 224 227 227 224 226 231 220 219 221 224 224 229 227 223 224 224
300 295 290 285 284 283 281 276 276 276 274 272 275 275 275 275 275 271 262 259 262 254 259 255 237 249 220 222 225 228 226 222 219 213 216 220 222 225 226 224 222 224 220
301 297 293 289 282 280 277 274 272 273 272 271 272 272 274 271 273 274 270 265 271 264 262 254 256 250 227 227 222 224 224 222 220 218 216 218 218 221 221 221 219 222 220
305 300 295 289 285 280 275 273 271 271 273 271 269 270 273 273 272 270 274 269 265 261 258 260 261 247 242 208 216 220 227 221 221 219 214 213 214 216 216 219 219 220 219
307 300 295 292 286 279 276 267 265 271 276 275 275 274 273 272 267 266 265 263 263 264 260 261 262 250 229 240 223 224 229 208 214 217 214 213 213 214 215 215 216 217 220
316 302 294 293 287 281 276 269 266 264 264 267 271 273 272 272 270 267 266 263 260 254 252 252 257 253 238 229 227 229 229 222 216 214 213 215 217 219 217 217 218 219 221
320 310 295 293 292 284 280 270 266 265 265 267 268 268 271 275 275 271 267 264 258 252 249 244 245 252 245 235 242 207 225 229 219 217 214 210 217 219 219 220 220 223 223
325 314 310 297 293 290 282 273 265 264 266 267 269 269 271 273 274 271 262 263 264 262 256 254 248 243 249 247 254 260 251 208 203 211 215 211 215 217 221 221 222 224 227
351 336 319 314 311 308 304 281 264 263 265 268 272 273 267 266 270 264 259 261 264 266 268 268 259 251 248 251 249 250 250 254 197 199 212 212 216 218 216 223 223 225 226